EHI
0 0 0 0 0 0 0 0 0 0 0 0 0 0 0 0 0 0 0 0 0 0 0 0 0 0 0 0 0 0 0 0 0 0 0 0 0 0 0 0 0 0 0 0
0 0 0 0 0 0 0 0 0 0 0 0 0 0 0 0 0 0 0 0 0 0 0 0 0 0 0 0 0 0 0 0 0 0 0 0 0 0 0 0 0 0 0 0
0 0 0 0 0 0 0 0 0 0 0 0 0 0 0 0 0 0 0 0 0 0 0 0 0 0 0 0 0 0 0 0 0 0 0 0 0 0 0 0 0 0 0 0
0 0 0 0 0 0 0 0 0 0 0 0 0 0 0 0 0 0 0 0 0 0 0 0 0 0 0 0 0 0 0 0 0 0 0 0 0 0 0 0 0 0 0 0
0 0 0 0 0 0 0 0 0 0 0 0 0 0 0 0 0 0 0 0 0 0 0 0 0 0 0 0 0 0 0 0 0 0 0 0 0 0 0 0 0 0 0 0
0 0 0 0 0 0 0 0 0 0 0 0 0 0 0 0 0 0 0 0 0 0 0 0 0 0 0 0 0 0 0 0 0 0 0 0 0 0 0 0 0 0 0 0
0 0 0 0 0 0 0 0 0 0 0 0 0 0 0 0 0 0 0 0 0 0 0 0 0 0 0 0 0 0 0 0 0 0 0 0 0 0 0 0 0 0 0 0
0 0 0 0 0 0 0 0 0 0 0 0 0 0 0 0 0 0 0 0 0 0 0 0 0 0 0 0 0 0 0 0 0 0 0 0 0 0 0 0 0 0 0 0
0 0 0 0 0 0 0 0 0 0 0 0 0 0 0 0 0 0 0 0 0 0 0 0 0 0 0 0 0 0 0 0 0 0 0 0 0 0 0 0 0 0 0 0
0 0 0 0 0 0 0 0 0 0 0 0 0 0 0 0 0 0 0 0 0 0 0 0 0 0 0 0 0 0 0 0 0 0 0 0 0 0 0 0 0 0 0 0
0 0 0 0 0 0 0 0 0 0 0 0 0 0 0 0 0 0 0 0 0 0 0 0 0 0 0 0 0 0 0 0 0 0 0 0 0 0 0 0 0 0 0 0
0 0 0 0 0 0 0 0 0 0 0 0 0 0 0 0 0 0 0 0 0 0 0 0 0 0 0 0 0 0 0 0 0 0 0 0 0 0 0 0 0 0 0 0
0 0 0 0 0 0 0 0 0 0 0 0 0 0 0 0 0 0 0 0 0 0 0 0 0 0 0 0 0 0 0 0 0 0 0 0 0 0 0 0 0 0 0 0
0 0 0 0 0 0 0 0 0 0 0 0 0 0 0 0 0 0 0 0 0 0 0 0 0 0 0 0 0 0 0 0 0 0 0 0 0 0 0 0 0 0 0 0
0 0 0 0 0 0 0 0 0 0 0 0 0 0 0 0 0 0 0 0 0 0 0 0 0 0 0 0 0 0 0 0 0 0 0 0 0 0 0 0 0 0 0 0
0 0 0 0 0 0 0 0 0 0 0 0 0 0 0 0 0 0 0 0 0 0 0 0 0 0 0 0 0 0 0 0 0 0 0 0 0 0 0 0 0 0 0 0
0 0 0 0 0 0 0 0 0 0 0 0 0 0 0 0 0 0 0 0 0 0 0 0 0 0 0 0 0 0 0 0 0 0 0 0 0 0 0 0 0 0 0 0
0 0 0 0 0 0 0 0 0 0 0 0 0 0 0 0 0 0 0 0 0 0 0 0 0 0 0 0 0 0 0 0 0 0 0 0 0 0 0 0 0 0 0 0
0 0 0 0 0 0 0 0 0 0 0 0 0 0 0 0 0 0 0 0 0 0 0 0 0 0 0 0 0 0 0 0 0 0 0 0 0 0 0 0 0 0 0 0
0 0 0 0 0 0 0 0 0 0 0 0 0 0 0 0 0 0 0 0 0 0 0 0 0 0 0 0 0 0 0 0 0 0 0 0 0 0 0 0 0 0 0 0
0 0 0 0 0 0 0 0 0 0 0 0 0 0 0 0 0 0 0 0 0 0 0 0 0 0 0 0 0 0 0 0 0 0 0 0 0 0 0 0 0 0 0 0
0 0 0 0 0 0 0 0 0 0 0 0 0 0 0 0 0 0 0 0 0 0 0 0 0 0 0 0 0 0 0 0 0 0 0 0 0 0 0 0 0 0 0 0
0 0 0 0 0 0 0 0 0 0 0 0 0 0 0 0 0 0 0 0 0 0 0 0 0 0 0 0 0 0 0 0 0 0 0 0 0 0 0 0 0 0 0 0
0 0 0 0 0 0 0 0 0 0 0 0 0 0 0 0 0 0 0 0 0 0 0 0 0 0 0 0 0 0 0 0 0 0 0 0 0 0 0 0 0 0 0 0
0 0 0 0 0 0 0 0 0 0 0 0 0 0 0 0 0 0 0 0 0 0 0 0 0 0 0 0 0 0 0 0 0 0 0 0 0 0 0 0 0 0 0 0
0 0 0 0 0 0 0 0 0 0 0 0 0 0 0 0 0 0 0 0 0 0 0 0 0 0 0 0 0 0 0 0 0 0 0 0 0 0 0 0 0 0 0 0
0 0 0 0 0 0 0 0 0 0 0 0 0 0 0 0 0 0 0 0 0 0 0 0 0 0 0 0 0 0 0 0 0 0 0 0 0 0 0 0 0 0 0 0
Wind_Speed
2 1 8 8 8 9 8 3 3 0 2 1 1 1 2 4 6 5 4 3 3 5 6 7 7 8 8 8 8 8 8 8 9 9 9 8 8 8 8 7 8 7 7 6
4 5 10 9 9 7 6 5 3 3 2 1 2 3 4 6 6 3 4 6 7 7 7 8 8 8 8 9 9 8 8 9 9 8 8 8 9 8 8 8 7 7 7 7
4 4 4 6 6 5 4 4 3 2 1 3 4 6 7 6 5 6 8 8 8 8 8 9 9 9 9 10 9 8 9 9 8 8 8 9 9 8 8 8 7 7 8 7
2 6 4 1 1 4 4 3 3 1 3 4 6 7 6 6 6 8 9 9 9 9 9 9 9 9 9 9 9 8 8 9 8 8 8 8 8 8 8 7 7 7 8 8
3 2 1 1 3 3 1 2 1 2 5 6 7 5 5 8 8 9 10 10 10 10 10 9 9 10 9 9 8 8 9 9 9 8 8 8 8 8 8 7 7 7 7 8
3 1 2 3 4 3 1 2 3 3 5 7 6 6 7 8 8 9 10 10 10 9 9 9 10 9 8 8 8 9 9 9 9 8 8 8 9 8 7 7 8 7 7 8
2 1 2 3 4 4 3 7 6 5 6 6 6 7 9 9 9 9 10 10 9 9 8 9 9 8 8 8 9 9 9 9 8 8 8 9 8 7 7 7 6 7 7 7
2 2 4 4 3 2 5 5 5 5 5 6 8 9 9 9 9 10 9 9 9 8 9 9 9 9 10 11 11 10 9 9 9 8 8 8 7 6 6 6 6 6 6 7
6 5 5 1 2 3 4 4 5 5 7 7 7 8 8 8 8 8 9 9 9 9 11 10 10 9 11 11 10 9 9 9 9 9 7 7 6 7 6 5 5 5 5 6
1 1 1 1 1 2 2 3 5 5 6 6 7 8 9 8 8 9 9 10 9 10 12 12 11 11 11 11 10 9 10 10 9 8 7 6 5 5 5 5 5 5 5 5
0 2 2 3 3 4 4 5 5 6 6 6 7 8 7 8 9 9 9 9 9 11 12 14 13 12 12 11 9 10 9 9 8 7 6 6 6 5 6 6 6 6 6 5
5 5 3 5 5 3 4 5 6 6 7 7 6 7 8 8 8 9 11 11 11 12 13 14 13 13 12 10 9 9 8 8 6 5 5 5 5 6 8 9 10 12 11 8
6 4 4 3 3 4 4 5 6 6 6 7 7 7 8 8 9 10 11 12 13 14 14 14 14 14 12 10 9 9 9 8 6 5 5 5 4 4 5 5 6 7 8 8
3 2 1 2 3 4 4 5 6 6 6 6 6 8 8 9 11 12 13 13 14 14 14 14 14 14 13 11 10 9 8 9 8 5 5 4 4 4 4 3 3 2 2 4
2 3 1 1 3 5 5 5 6 7 7 7 7 8 10 11 12 13 13 14 14 14 15 14 15 14 12 11 10 9 7 5 5 4 4 4 3 3 3 3 3 2 1 0
2 3 3 3 4 5 5 5 5 7 7 7 8 9 10 11 12 13 14 14 15 16 15 15 14 14 12 10 9 7 6 9 6 3 3 3 2 2 2 2 2 2 2 2
3 2 2 3 4 4 4 5 6 7 7 8 9 10 10 12 13 14 15 15 14 14 14 13 14 14 12 10 9 6 5 6 7 4 2 2 2 2 1 1 1 1 1 3
5 3 2 2 2 3 5 6 6 7 6 7 9 9 10 12 14 15 16 16 15 14 13 13 15 15 12 10 7 5 4 4 3 2 1 1 1 1 1 1 1 1 1 2
5 5 4 4 3 2 4 5 6 6 6 7 8 9 10 11 13 14 15 15 15 15 15 17 20 15 12 10 10 4 4 3 2 1 0 1 1 1 1 1 1 1 3 3
5 4 4 3 3 3 4 5 5 6 6 6 7 9 11 12 13 14 15 13 10 12 16 17 16 12 11 10 12 5 4 3 1 0 1 1 1 1 1 2 2 2 3 3
5 4 3 2 3 4 4 5 4 5 6 6 7 9 10 12 13 13 13 12 13 15 17 17 12 11 10 11 10 5 3 2 1 1 1 1 2 2 2 2 2 3 3 2
4 2 1 1 2 4 4 3 4 4 6 6 7 8 10 12 13 12 11 9 13 18 14 10 10 14 16 13 6 5 4 2 1 1 2 2 2 2 2 3 2 3 3 3
4 3 2 1 2 2 3 3 4 4 5 6 7 9 10 10 9 10 12 11 12 18 13 10 16 19 18 10 7 7 5 4 3 2 2 2 2 3 3 3 3 3 3 3
4 3 2 1 0 2 3 3 3 3 4 5 6 7 8 8 8 8 8 13 17 17 11 12 18 19 15 8 8 7 7 6 4 3 3 3 3 3 3 3 3 3 4 4
5 4 3 2 1 0 1 2 3 4 4 5 6 7 7 6 7 9 10 12 16 15 11 13 17 17 11 8 8 8 7 7 6 5 4 4 3 3 3 3 3 3 3 3
5 4 3 3 3 2 0 1 1 2 3 4 5 6 7 7 8 8 9 11 14 14 11 10 11 12 10 9 9 9 8 7 7 6 6 5 5 4 4 4 5 3 3 3
4 4 3 2 2 1 1 1 1 1 2 3 5 6 7 8 8 9 10 10 10 10 10 9 9 9 9 9 9 9 8 8 7 7 6 6 5 5 5 5 5 4 4 4
Wind_Direction
286 51 75 64 54 58 70 87 115 315 101 38 17 2 337 323 318 324 334 327 293 270 260 261 262 260 254 251 250 246 241 238 240 241 241 243 246 247 248 248 253 250 250 253
352 87 93 66 43 46 55 51 71 94 82 340 333 347 331 323 320 310 292 286 279 273 267 262 259 257 253 251 250 243 239 240 242 243 242 242 243 242 244 247 249 246 245 247
320 315 75 32 13 36 44 29 75 102 284 310 327 323 308 301 289 277 279 279 277 272 261 258 256 253 253 251 250 246 242 244 243 240 240 242 246 244 238 242 242 243 243 242
350 22 42 227 10 58 91 87 78 95 295 293 285 281 278 279 275 283 286 284 278 270 266 262 260 261 259 259 255 250 248 248 245 242 245 248 246 243 242 239 236 239 242 243
71 30 149 334 0 0 324 224 46 327 309 302 296 310 295 279 278 280 281 279 275 272 271 272 272 272 273 270 264 258 253 249 246 243 246 246 244 243 243 239 238 237 238 241
65 33 254 263 306 308 22 273 283 328 311 303 320 321 286 281 284 285 284 284 284 285 286 286 285 284 282 279 278 274 269 262 256 252 249 246 244 244 244 236 237 240 242 240
64 341 267 278 308 35 49 275 287 290 291 294 287 264 275 292 293 291 294 296 298 300 299 293 293 294 288 284 277 273 274 268 262 255 253 251 248 246 242 239 241 243 249 250
79 19 278 304 29 75 243 256 279 286 289 288 281 283 292 300 302 306 308 306 306 304 299 294 293 292 288 283 280 278 277 273 268 262 260 267 251 249 243 238 241 246 250 258
175 207 230 233 148 211 222 269 285 288 294 295 299 300 302 304 307 307 305 305 304 302 302 301 298 294 291 288 288 287 284 278 272 268 260 256 250 250 251 242 237 242 240 247
96 200 192 134 35 323 310 301 298 300 304 310 307 306 310 309 308 308 305 304 302 304 305 304 300 295 288 287 287 285 283 280 274 268 263 257 251 246 243 240 237 239 236 239
100 294 325 331 327 315 324 328 322 317 313 314 316 314 311 310 309 307 305 303 305 308 307 305 303 299 296 293 288 285 285 282 275 264 260 260 254 246 240 235 228 226 230 223
217 232 215 264 281 314 336 326 318 320 322 321 322 315 316 313 308 308 310 313 313 310 307 306 305 302 300 294 286 284 285 282 274 264 260 257 258 269 256 247 251 242 237 228
182 195 193 256 309 333 327 322 322 330 327 324 322 318 319 315 312 314 316 317 315 312 310 308 307 304 302 299 292 286 281 279 273 266 260 256 254 257 273 278 265 258 249 238
157 129 9 323 312 324 329 327 335 336 328 323 319 319 320 317 317 320 319 317 315 313 312 310 309 308 306 303 297 291 285 282 278 264 258 254 251 249 246 251 270 281 267 243
123 124 179 312 347 343 336 340 344 333 323 322 320 323 324 324 321 320 318 319 318 316 315 315 314 312 312 309 303 296 289 279 271 262 255 250 250 246 240 238 237 239 224 22
109 61 45 20 352 338 343 346 338 325 321 322 326 325 324 321 320 320 322 322 322 320 319 319 317 316 313 311 306 301 294 295 293 271 253 251 246 235 228 227 221 214 187 165
105 53 18 357 346 345 342 333 325 320 322 326 324 324 327 328 327 326 325 323 319 316 316 318 320 319 316 311 307 303 297 296 298 291 257 237 217 210 215 201 198 207 194 174
133 135 121 78 26 348 337 331 323 324 324 320 324 330 333 332 329 327 326 325 324 323 325 327 327 326 322 317 316 308 304 299 294 281 249 206 187 190 194 185 179 173 154 142
114 100 81 60 39 3 331 320 320 323 323 326 331 331 327 325 325 326 327 328 330 333 334 332 328 329 327 325 331 315 313 318 321 314 182 152 155 161 156 158 161 150 138 135
111 100 83 52 17 346 323 321 327 329 327 330 334 334 332 331 331 331 330 328 331 332 328 328 330 331 331 329 334 323 319 319 326 9 103 131 140 138 142 152 146 134 133 139
123 109 87 34 338 329 328 330 333 333 331 338 340 334 330 329 333 334 333 334 334 335 333 329 333 336 335 332 330 331 334 338 355 42 123 135 128 129 135 139 137 134 135 132
147 143 130 328 327 324 324 331 339 341 343 343 339 335 336 337 338 335 333 331 329 332 334 334 338 338 337 337 340 347 355 4 24 57 87 108 116 121 126 133 135 133 131 130
172 178 189 254 289 309 333 344 349 350 348 345 340 339 338 333 334 336 335 332 332 332 335 337 339 341 344 349 353 359 8 21 36 55 77 98 113 120 124 127 122 121 124 129
181 186 197 213 37 30 351 330 340 349 348 341 339 339 338 336 335 334 325 324 333 335 339 339 343 347 353 0 2 6 11 19 30 43 59 74 90 101 106 111 109 108 118 128
180 175 166 136 96 293 288 330 356 357 353 344 339 340 341 337 331 330 331 335 340 343 345 345 349 353 1 4 7 9 12 17 26 38 52 63 72 78 82 92 105 114 117 125
172 169 170 166 166 172 156 39 15 349 351 346 340 339 340 339 336 336 339 341 345 346 350 352 354 358 4 6 8 10 13 17 27 34 41 51 58 65 71 76 84 91 96 100
160 149 139 127 128 124 97 76 59 12 1 354 343 338 340 342 344 345 347 349 352 353 353 355 358 2 5 8 11 15 19 21 23 27 32 39 47 53 58 65 66 66 67 70